Regional Weather Roundup
Issued by NWS Newport/Morehead, NC

Current Version | Previous Version | Text Only | Print | Product List | Glossary On
Versions: 1 2 3 4 5 6 7 8 9 10 11 12 13 14 15 16 17 18 19 20 21 22 23 24 25 26 27 28 29 30 31 32 33 34 35 36 37 38 39 40 41 42 43 44 45 46 47 48 49 50
000
ASUS42 KMHX 051113
RWRMHX
WEATHER ROUNDUP FOR EASTERN NORTH CAROLINA
NATIONAL WEATHER SERVICE NEWPORT/MOREHEAD CITY NC
700 AM EDT SAT SEP 05 2015

NOTE: "FAIR" INDICATES FEW OR NO CLOUDS BELOW 12,000 FEET
WITH NO SIGNIFICANT WEATHER AND/OR OBSTRUCTIONS TO VISIBILITY

NCZ015>017-031-032-045>047-102-103-051200-
NORTH COAST

CITY           SKY/WX    TMP DP  RH WIND       PRES   REMARKS
EDENTON        PTCLDY    70  68  95 N5        30.08R FOG
ELIZABETH CITY PTCLDY    74  72  93 NW8       30.07S
KITTY HAWK     MOSUNNY   78  74  87 NE8       30.04S
MANTEO         PTCLDY    77  74  90 NE9       30.05S

$$

NCZ045>047-081-094-103-104-051200-
CENTRAL COAST

CITY           SKY/WX    TMP DP  RH WIND       PRES   REMARKS
FRISCO         MOCLDY    78  71  79 NE7G17    30.03R
SWANQUARTER      N/A     73 N/A N/A VRB1G8    30.03R

$$

NCZ095-097-098-100-101-051200-
SOUTHERN COAST

CITY           SKY/WX    TMP DP  RH WIND       PRES   REMARKS
BEAUFORT       MOCLDY    75  74  96 N10       30.02F
CEDAR ISLAND     N/A     79 N/A N/A NE10G22   30.09R
JACKSONVILLE   CLOUDY    72  70  93 N8        30.05R FOG
PINEY ISLAND   MOSUNNY  N/A N/A N/A N16       30.04R
WILMINGTON     MOCLDY    72  71  97 N7        30.05R FOG


$$

NCZ011>013-027>030-043-044-078>080-089-090>093-098-051200-
COASTAL PLAIN

CITY           SKY/WX    TMP DP  RH WIND       PRES   REMARKS
AHOSKIE        CLOUDY    70  69  97 N5        30.11R FOG
CLINTON          N/A     71  71 100 N3        30.08R FOG
ELIZABETHTOWN  CLOUDY    70  70 100 CALM      30.08R FOG
GOLDSBORO      CLEAR     71  70  98 N8        30.07R
GREENVILLE     LGT RAIN  70  70 100 N3        30.11R
HAVELOCK       PTCLDY    75  73  93 NE12      30.05S
KENANSVILLE      N/A     70  69  96 NE3       30.09R FOG
KINSTON        PTCLDY    72  70  94 N7        30.09R FOG
NEW BERN       PTCLDY    74  71  91 N8        30.07R
RICHLANDS      CLOUDY    72  66  83 N6        30.07R
ROCKY MOUNT    CLOUDY    72  70  93 N9        30.11R FOG
WASHINGTON     CLEAR     71  69  95 N5        30.08R FOG
WHITEVILLE     CLOUDY    71  69  95 CALM      30.06R FOG

$$

AMZ130-135-150-152-154-156-158-170-250-252-270-ANZ085-086-088-633-658-670-051200-
MARINE OBSERVATIONS

STATION/POSITION TIME  TEMP    WIND        PRES    WAVE   SWELL
                       AIR SEA DIR/SP/G            HT/PER HT/PER
                 (UTC) (F)     (DEG/KT/KT) (MB)    (FT/S) (FT/S)
CHESAPEAKE LIGHT 1100   79      70/ 25/ 28 1019.1
64 E VA BEACH    1050   79 80   60/ 19/ 23 1017.2    5/ 6   2/12
DUCK             1000   79 80   30/ 20/ 21 1016.6
2 E DUCK         1011      80                N/A     4/ 5
OREGON INLET     1000   78 81   20/  8/ 11 1017.0
13E OREGON INLT  1100      80                N/A     3/ 6
HATTERAS CG      1000   79 83   40/  9/ 16 1016.4
DIAMOND BUOY     1050   78 84   30/ 14/ 17 1016.5    4/ 6   2/ 7
CAPE LOOKOUT     1100   80      20/ 16/ 19 1016.5
BEAUFORT LAB     1000   76 82  360/  8/ 11 1016.1
30 SE NEW RVR IN NOT AVBL
30 SE NEW RVR IN 1025      81                N/A     3/ 4
27 SE WRIGHTSVLE 1000   75 82   30/ 14/ 16   N/A
5 SE WRIGHTSVLE  1008   77 82   30/ 14/ 17 1016.4
225 S CAPE HAT   1050   82 84   20/  8/ 10 1014.5    1/ 9   2/ 9
41 SE CHARLESTON 1050   81 84   20/ 12/ 14 1015.6    2/ 3

$$


USA.gov is the U.S. government's official web portal to all federal, state and local government web resources and services.